Weather History for VIJP - October, 2013

Change the Weather History Date:

Tuesday, October 15, 2013

  Actual Average Record
Temperature  
Mean Temperature 82 °F -  
Max Temperature 91 °F - - ()
Min Temperature 72 °F - - ()
Cooling Degree Days 16    
Growing Degree Days 32 (Base 50)    
Moisture  
Dew Point 67 °F    
Average Humidity 65    
Maximum Humidity 94    
Minimum Humidity 27    
Precipitation  
Precipitation 0.00 in - - ()
Sea Level Pressure  
Sea Level Pressure 29.84 in    
Wind  
Wind Speed 1 mph ()    
Max Wind Speed 7 mph    
Max Gust Speed -    
Visibility 1.6 miles    
Events      
T = Trace of Precipitation, MM = Missing Value Source: Averaged Metar Reports

Daily Weather History Graph

Daily Weather History Graph

Search for Another Location

Airport or City:

Trip Planner

Search our weather history database for the weather conditions in past years. The results will help you decide how hot, cold, wet, or windy it might be!

Date:

Astronomy

Oct. 15, 2013 Rise Set
Actual Time 6:26 AM IST 5:58 PM IST
Civil Twilight 6:02 AM IST 6:21 PM IST
Nautical Twilight 5:35 AM IST 6:48 PM IST
Astronomical Twilight 5:08 AM IST 7:15 PM IST
Moon 3:30 PM IST (10/15) 2:39 AM IST (10/15)
Length of Visible Light 12h 19m
Length of Day
11h 32m
Waxing Gibbous, 84% of the Moon is Illuminated
Oct 15
Waxing Gibbous
Oct 19
Full
Oct 27
Last Quarter
Nov 3
New
Nov 10
First Quarter

Hourly Weather History & Observations

Time (IST) Temp. Heat Index Dew Point Humidity Pressure Visibility Wind Dir Wind Speed Gust Speed Precip Events Conditions
12:00 AM 77.0 °F - 69.8 °F 78% 29.83 in 1.9 mi Calm Calm - N/A   Scattered Clouds
1:00 AM 77.0 °F - 69.8 °F 78% 29.83 in 1.9 mi Calm Calm - N/A   Scattered Clouds
2:00 AM 75.2 °F - 69.8 °F 83% 29.83 in 1.9 mi Calm Calm - N/A   Scattered Clouds
2:30 AM 76 °F - 70 °F 76% 29.75 in 1 mi Calm Calm - -   Mist
3:00 AM 77.0 °F - 69.8 °F 78% 29.80 in 1.9 mi Calm Calm - N/A   Scattered Clouds
4:00 AM 73.4 °F - 69.8 °F 88% 29.80 in 1.9 mi Calm Calm - N/A   Scattered Clouds
5:00 AM 73.4 °F - 69.8 °F 88% 29.83 in 1.6 mi Calm Calm - N/A   Scattered Clouds
5:30 AM 72 °F - 69 °F 88% 29.77 in 1 mi Calm Calm - -   Mist
5:30 AM 71.6 °F - 69.8 °F 94% 29.83 in 1.6 mi Calm Calm - N/A   Scattered Clouds
6:00 AM 71.6 °F - 69.8 °F 94% 29.83 in 1.6 mi Calm Calm - N/A   Scattered Clouds
6:30 AM 73.4 °F - 69.8 °F 88% 29.86 in 1.6 mi Calm Calm - N/A   Scattered Clouds
7:00 AM 71.6 °F - 68.0 °F 88% 29.86 in 1.2 mi Calm Calm - N/A   Smoke
7:30 AM 75.2 °F - 69.8 °F 83% 29.89 in 1.2 mi Calm Calm - N/A   Smoke
8:00 AM 77.0 °F - 71.6 °F 83% 29.89 in 1.2 mi Calm Calm - N/A   Smoke
8:30 AM 80 °F - 72 °F 70% 29.82 in 1 mi Calm Calm - -   Smoke
9:00 AM 84.2 °F 89.6 °F 71.6 °F 66% 29.92 in 1.2 mi Calm Calm - N/A   Smoke
9:30 AM 84.2 °F 88.4 °F 69.8 °F 62% 29.92 in 1.2 mi Variable 1.2 mph - N/A   Smoke
10:00 AM 86.0 °F 87.3 °F 64.4 °F 48% 29.92 in 1.6 mi Variable 1.2 mph - N/A   Haze
11:30 AM 88 °F - 63 °F 34% 29.80 in 1 mi NW 4.6 mph - -   Haze
12:00 PM 89.6 °F 90.1 °F 62.6 °F 40% 29.89 in 1.9 mi Variable 4.6 mph - N/A   Haze
1:00 PM 89.6 °F 90.1 °F 62.6 °F 40% 29.86 in 1.9 mi Variable 6.9 mph - N/A   Haze
2:00 PM 91.4 °F 91.4 °F 60.8 °F 36% 29.83 in 1.9 mi Variable 3.5 mph - N/A   Haze
2:30 PM 90 °F - 60 °F 27% 29.74 in 2 mi WNW 2.3 mph - -   Haze
3:00 PM 91.4 °F 90.7 °F 59.0 °F 34% 29.83 in 1.9 mi North 3.5 mph - N/A   Haze
4:00 PM 91.4 °F 91.4 °F 60.8 °F 36% 29.83 in 2.5 mi NW 6.9 mph - N/A   Haze
5:00 PM 91.4 °F 91.4 °F 60.8 °F 36% 29.83 in 2.5 mi Variable 2.3 mph - N/A   Haze
6:00 PM 86.0 °F 87.3 °F 64.4 °F 48% 29.83 in 1.9 mi Calm Calm - N/A   Haze
7:00 PM 82.4 °F 84.6 °F 66.2 °F 58% 29.86 in 1.9 mi Calm Calm - N/A   Haze
8:00 PM 80.6 °F 83.2 °F 68.0 °F 65% 29.86 in 1.9 mi Calm Calm - N/A   Haze
8:30 PM 80 °F - 69 °F 60% 29.79 in 1 mi Calm Calm - -   Haze
9:00 PM 78.8 °F - 68.0 °F 69% 29.89 in 1.6 mi Calm Calm - N/A   Haze
10:00 PM 78.8 °F - 66.2 °F 65% 29.89 in 1.6 mi Calm Calm - N/A   Haze
11:00 PM 77.0 °F - 66.2 °F 69% 29.89 in 1.6 mi Calm Calm - N/A   Haze
11:30 PM 76 °F - 67 °F 68% 29.83 in 1 mi Calm Calm - -   Haze